Wind_Speed
25 25 24 23 25 26 27 28 30 30 32 31 35 38 38 38 37 38 38 38 37 35 33 31 28 27 25 24 24 24 24 23 22 12 14 16 19 19 17 15 15 20 32
24 25 22 23 25 25 26 27 27 27 29 33 36 37 37 38 39 38 38 38 39 38 37 33 29 28 27 25 25 24 24 23 22 15 15 16 18 21 21 19 18 15 21
23 23 23 23 24 24 25 26 26 27 30 31 34 38 39 41 42 40 40 38 38 39 36 37 34 30 27 26 25 24 24 22 21 20 14 17 21 22 21 19 17 16 16
24 24 24 23 24 24 25 25 26 28 30 34 38 40 43 46 47 46 45 43 45 42 40 38 38 31 26 24 21 26 25 25 24 24 19 19 20 23 23 22 21 18 15
24 24 22 23 23 24 24 25 27 30 33 37 38 40 44 46 48 48 47 44 43 41 41 39 39 33 21 22 24 27 28 28 29 29 25 24 22 22 22 20 20 20 17
25 22 22 23 23 24 24 26 29 32 35 37 40 42 45 46 47 49 52 52 47 51 45 35 33 30 26 21 16 17 29 30 28 27 28 28 25 22 21 19 19 20 18
24 22 22 23 24 24 26 29 31 34 36 38 41 44 46 47 47 50 52 53 51 56 49 37 29 26 22 18 17 25 17 25 27 26 25 27 29 26 23 19 15 12 10
22 22 23 23 24 25 27 30 32 35 38 40 41 44 45 46 49 52 55 56 55 56 52 42 37 30 21 16 19 17 10 14 19 20 20 24 28 30 27 24 17 17 10
21 22 23 24 25 27 29 32 34 36 38 41 44 46 47 49 53 56 59 61 60 56 55 40 34 30 24 19 17 13 3 8 11 13 16 22 28 32 30 26 17 13 14
22 24 25 25 27 29 31 33 35 37 39 40 43 45 48 49 52 57 60 64 63 59 56 40 32 29 24 20 16 11 3 5 7 9 14 20 24 27 27 24 21 12 12
23 24 24 26 28 30 31 32 34 36 37 40 43 46 48 49 52 57 61 66 66 59 58 42 34 29 24 20 16 9 6 5 6 8 12 18 22 24 24 23 19 15 7
21 22 23 25 26 28 29 31 34 36 38 40 43 47 48 49 54 58 60 64 64 58 55 43 34 28 23 20 16 11 7 8 10 12 13 15 18 20 21 20 20 13 11
20 21 22 23 25 27 29 31 34 37 40 45 48 51 52 55 58 59 60 62 63 57 55 43 30 27 24 21 18 13 8 10 14 14 14 13 13 15 20 21 19 14 12
19 20 22 24 26 28 30 33 36 39 43 46 50 54 55 58 59 60 60 62 64 58 56 46 30 28 26 22 18 14 10 10 14 17 9 11 10 12 16 18 18 13 14
18 19 21 22 24 27 29 32 36 39 43 45 48 53 55 57 56 55 57 60 63 60 58 53 38 32 27 24 21 17 13 10 12 15 13 12 14 10 13 17 19 16 15
17 18 20 22 24 25 28 31 34 36 39 41 44 46 47 50 51 52 54 56 60 62 61 59 51 38 34 29 25 22 17 13 10 11 13 9 9 7 11 17 18 17 15
16 18 19 20 22 24 26 28 29 33 36 37 40 41 44 47 50 52 53 55 59 63 64 63 56 47 38 34 30 26 22 17 13 10 11 11 9 9 10 14 15 15 12
16 17 19 20 22 24 26 29 31 32 34 35 37 40 42 45 48 52 54 54 59 65 68 63 60 54 41 37 32 28 25 21 16 13 12 12 11 11 11 13 14 12 11
16 18 19 20 21 23 25 27 29 31 33 34 33 35 40 43 46 48 54 59 61 63 66 66 59 57 51 37 34 30 27 24 20 17 15 15 13 13 13 14 14 13 13
16 18 19 20 21 23 24 26 28 31 34 36 38 41 41 43 46 51 54 57 59 61 63 65 63 56 54 47 34 32 28 24 23 20 19 17 15 13 13 13 13 13 13
16 18 19 20 21 23 24 26 28 30 33 35 38 40 42 44 47 49 51 54 57 59 60 61 63 62 54 52 45 30 29 27 24 23 21 17 14 13 11 12 13 14 14
15 17 18 20 21 23 24 26 27 29 30 32 34 36 38 40 43 45 47 50 52 55 56 58 60 63 62 54 50 44 27 27 24 23 20 19 16 10 9 9 10 12 12
15 17 18 19 21 22 23 25 26 28 30 31 32 34 36 38 40 42 44 46 48 50 53 54 56 59 61 60 54 49 43 34 24 23 21 19 16 14 10 8 7 8 10
16 17 18 19 20 22 23 24 25 27 29 30 31 32 33 35 37 39 41 42 44 46 49 51 53 55 57 59 58 53 46 42 37 21 20 20 17 15 13 11 9 9 9
15 16 17 18 20 21 22 23 24 25 26 28 29 30 31 33 34 36 37 39 41 42 44 46 48 50 51 54 56 56 52 43 39 36 26 17 19 19 17 14 12 11 9
15 16 17 18 19 20 21 22 23 24 25 26 27 28 29 31 32 33 34 36 37 38 40 42 44 45 47 49 52 53 53 51 45 39 35 30 18 13 12 14 17 16 13
Wind_Direction
0 2 3 2 359 357 357 357 356 1 3 5 2 358 356 355 357 358 360 359 355 348 337 325 316 304 292 282 275 273 272 271 271 250 241 230 221 219 217 223 225 226 224
2 3 3 359 359 358 359 358 0 4 4 5 1 1 1 360 357 354 352 352 350 352 353 336 319 305 293 283 275 269 265 264 263 251 236 222 215 214 214 214 227 217 218
3 2 1 0 2 1 2 2 3 4 2 2 2 4 3 5 4 359 352 345 346 342 338 340 335 314 299 287 278 271 264 260 255 250 223 217 214 214 213 212 217 226 224
5 3 5 9 6 5 5 6 8 7 6 7 7 5 4 6 5 1 359 352 349 342 336 329 334 327 306 288 268 265 260 251 245 242 229 205 212 216 215 213 212 227 223
7 8 17 12 9 9 10 14 11 8 9 9 7 6 7 5 3 360 356 350 346 346 336 324 322 321 313 290 270 267 264 255 245 241 232 208 207 212 214 217 219 227 227
10 21 18 16 15 18 17 14 11 8 8 8 7 6 6 4 4 0 357 354 352 353 347 333 323 314 307 303 300 296 264 254 246 239 230 214 204 208 208 212 218 227 227
19 23 22 23 24 23 17 13 11 9 7 8 7 6 6 4 3 3 2 360 357 360 358 354 350 337 327 306 308 312 282 245 242 237 230 215 206 207 206 202 200 201 211
26 28 29 27 25 23 17 15 12 10 8 9 8 8 5 3 5 6 5 4 4 5 1 0 359 354 351 334 326 317 282 236 232 231 221 206 200 203 205 201 195 204 214
30 31 30 26 24 21 17 16 14 11 10 11 10 8 7 5 6 6 6 7 7 6 3 1 2 0 355 359 354 345 291 209 207 207 198 193 195 200 203 198 200 200 207
33 31 29 25 22 21 19 17 16 12 11 11 12 11 9 7 10 9 7 9 9 7 6 4 6 6 3 5 11 18 20 196 193 184 175 181 191 198 201 198 205 210 202
34 31 28 24 22 21 20 17 17 16 13 14 15 15 12 9 14 13 10 11 10 8 9 10 11 9 9 14 18 31 58 112 144 149 158 174 184 193 196 196 196 186 200
34 33 29 25 24 23 21 19 19 17 15 16 18 19 15 13 17 16 13 14 12 10 12 11 14 14 16 22 29 35 64 102 118 132 145 163 177 185 189 190 192 200 211
32 32 29 26 23 22 22 21 19 18 17 18 18 18 15 15 18 17 15 15 14 14 17 16 18 22 28 31 38 46 66 107 123 131 138 146 155 171 181 182 180 193 188
29 29 27 23 22 22 20 18 17 17 17 19 18 20 15 16 16 16 14 15 17 17 19 24 31 29 33 38 44 53 71 105 128 121 124 122 137 162 174 185 186 190 186
27 27 26 24 23 21 20 18 17 17 17 18 19 19 15 15 18 15 14 16 19 19 22 29 39 40 42 44 48 54 65 95 136 144 127 141 104 120 160 171 173 182 185
25 24 24 23 23 21 20 17 16 16 17 18 18 20 18 16 17 19 17 19 21 23 25 30 33 38 41 45 49 52 59 74 105 151 157 120 133 101 141 160 167 173 179
22 21 22 20 20 19 19 20 21 16 14 17 19 18 17 16 16 21 20 21 23 26 31 29 32 34 37 39 42 46 52 62 76 105 137 154 148 120 134 161 167 172 172
19 18 18 17 16 15 14 16 16 16 17 17 17 17 17 16 15 17 22 22 27 29 30 33 30 35 35 37 41 42 45 52 63 79 109 128 135 121 137 154 162 168 169
14 14 14 13 11 11 11 12 13 13 14 16 19 19 21 19 18 17 21 23 26 28 31 33 33 35 38 39 39 41 45 50 59 69 82 98 103 120 137 150 155 157 161
10 10 9 8 6 7 6 7 8 10 11 11 13 16 19 18 19 21 21 23 26 28 30 32 34 35 38 41 41 44 51 57 62 69 76 86 97 110 125 136 142 145 151
3 4 3 2 2 3 2 3 4 7 8 9 12 13 15 16 18 21 21 21 24 27 28 30 33 35 38 40 43 42 48 55 62 65 68 76 86 102 116 128 137 142 150
357 359 359 358 358 360 360 1 2 4 6 9 11 12 14 16 19 21 22 22 22 25 28 28 31 33 35 39 42 44 49 54 58 65 65 64 71 81 105 124 138 143 147
351 352 352 354 355 355 356 359 0 2 3 7 9 11 13 15 18 20 21 23 22 23 27 28 30 32 35 36 40 40 42 51 56 60 65 66 65 69 78 99 119 133 143
346 347 348 351 352 353 354 356 359 0 1 4 7 9 11 14 16 19 21 22 24 23 24 27 29 30 32 35 37 40 40 42 45 52 63 66 70 71 73 82 95 111 129
343 345 346 347 349 352 352 353 356 359 359 1 4 7 10 12 15 16 19 21 23 24 24 25 29 31 31 33 35 37 39 40 42 45 50 62 69 74 74 76 86 93 105
340 343 346 346 350 349 352 352 354 357 358 359 2 5 7 10 13 15 16 19 22 24 25 25 26 29 31 32 33 36 36 37 42 43 46 51 63 70 78 82 80 78 83
Height
3091 3086 3080 3075 3069 3064 3058 3051 3044 3037 3031 3023 3014 3006 2996 2987 2977 2968 2959 2950 2941 2932 2924 2917 2912 2907 2903 2900 2898 2897 2896 2896 2896 2900 2900 2901 2902 2905 2908 2911 2913 2916 2921
3090 3085 3080 3075 3069 3063 3057 3051 3044 3037 3030 3022 3014 3005 2996 2985 2975 2965 2956 2947 2936 2926 2918 2910 2903 2898 2895 2892 2890 2889 2888 2889 2889 2892 2894 2895 2897 2899 2902 2906 2909 2912 2916
3090 3085 3079 3074 3068 3062 3056 3050 3043 3037 3029 3021 3012 3003 2993 2983 2974 2964 2954 2942 2931 2921 2913 2905 2896 2889 2885 2882 2881 2880 2880 2881 2882 2883 2887 2889 2891 2894 2897 2901 2904 2908 2911
3089 3084 3079 3073 3068 3062 3056 3050 3044 3037 3029 3020 3010 3001 2991 2981 2971 2961 2949 2938 2928 2915 2905 2896 2887 2880 2875 2872 2871 2870 2870 2872 2874 2876 2879 2883 2885 2889 2892 2895 2900 2903 2907
3089 3084 3079 3074 3069 3063 3057 3051 3044 3038 3029 3020 3011 3002 2991 2980 2969 2958 2947 2934 2921 2910 2898 2887 2878 2870 2866 2863 2861 2860 2860 2861 2864 2867 2871 2876 2879 2883 2887 2891 2895 2899 2902
3089 3085 3080 3075 3070 3064 3059 3052 3045 3038 3030 3021 3011 3001 2991 2981 2970 2958 2943 2928 2915 2903 2888 2878 2870 2863 2857 2854 2852 2850 2849 2851 2854 2857 2862 2868 2874 2878 2882 2886 2890 2894 2898
3090 3086 3081 3076 3071 3065 3060 3054 3047 3039 3030 3021 3011 3001 2991 2981 2970 2958 2944 2929 2912 2897 2881 2869 2862 2855 2849 2846 2843 2840 2837 2839 2843 2848 2854 2860 2867 2873 2878 2882 2886 2890 2894
3092 3087 3082 3077 3072 3066 3061 3054 3047 3039 3030 3021 3012 3002 2992 2982 2969 2956 2943 2928 2909 2893 2879 2866 2857 2851 2846 2842 2838 2833 2830 2832 2835 2841 2847 2854 2861 2867 2873 2878 2883 2887 2890
3094 3089 3084 3079 3074 3068 3062 3055 3048 3040 3031 3021 3011 3001 2991 2979 2966 2953 2939 2923 2906 2893 2878 2866 2857 2850 2845 2839 2835 2831 2829 2830 2833 2837 2842 2849 2856 2862 2867 2874 2880 2883 2887
3095 3090 3086 3081 3076 3070 3063 3056 3049 3041 3033 3024 3014 3004 2993 2982 2967 2953 2938 2922 2907 2891 2878 2866 2857 2851 2845 2840 2835 2832 2830 2831 2833 2837 2842 2848 2854 2859 2866 2872 2877 2882 2885
3097 3092 3088 3083 3078 3071 3065 3059 3052 3044 3037 3027 3017 3006 2996 2985 2971 2956 2941 2923 2906 2894 2879 2866 2859 2852 2847 2841 2837 2834 2833 2833 2836 2840 2844 2848 2853 2858 2864 2870 2876 2880 2884
3099 3094 3090 3085 3079 3074 3068 3062 3055 3048 3040 3030 3020 3009 2999 2988 2973 2959 2946 2930 2915 2898 2883 2870 2862 2855 2849 2843 2840 2837 2837 2837 2840 2842 2846 2850 2854 2858 2864 2869 2875 2880 2883
3100 3096 3091 3086 3081 3076 3070 3063 3056 3048 3040 3029 3018 3007 2997 2985 2972 2962 2951 2937 2922 2906 2890 2876 2866 2859 2852 2848 2844 2842 2842 2841 2843 2847 2849 2852 2855 2859 2863 2868 2874 2878 2882
3102 3097 3093 3088 3083 3077 3071 3064 3057 3049 3039 3029 3020 3009 2998 2986 2974 2964 2955 2942 2928 2912 2897 2882 2870 2862 2856 2852 2850 2847 2846 2846 2848 2851 2853 2856 2858 2861 2864 2868 2874 2879 2883
3103 3099 3094 3089 3084 3079 3073 3066 3058 3050 3041 3033 3023 3011 3002 2992 2983 2974 2962 2948 2934 2920 2905 2889 2877 2870 2863 2858 2855 2852 2851 2851 2852 2855 2856 2858 2860 2862 2865 2869 2874 2879 2883
3104 3100 3096 3091 3086 3081 3075 3068 3061 3054 3046 3038 3030 3021 3014 3004 2995 2983 2971 2959 2945 2929 2911 2893 2882 2875 2869 2864 2861 2858 2856 2855 2856 2857 2859 2861 2863 2866 2868 2871 2876 2879 2883
3105 3101 3097 3093 3088 3084 3078 3073 3067 3058 3050 3044 3035 3028 3020 3010 3001 2990 2979 2966 2951 2936 2916 2902 2891 2882 2876 2871 2867 2863 2862 2860 2859 2860 2861 2864 2866 2868 2871 2874 2878 2882 2885
3106 3103 3099 3094 3090 3085 3081 3075 3069 3063 3056 3048 3041 3032 3024 3015 3004 2993 2984 2974 2956 2941 2926 2912 2902 2892 2883 2879 2874 2870 2867 2866 2865 2864 2865 2867 2869 2871 2874 2877 2880 2884 2887
3107 3103 3100 3096 3091 3087 3081 3076 3071 3065 3059 3052 3047 3040 3030 3020 3010 3000 2987 2973 2960 2948 2937 2925 2914 2903 2894 2887 2882 2878 2874 2872 2871 2870 2870 2871 2873 2875 2878 2880 2883 2885 2888
3107 3104 3100 3096 3092 3088 3083 3078 3072 3067 3060 3052 3045 3037 3030 3023 3013 3000 2989 2980 2970 2958 2948 2937 2926 2916 2905 2897 2891 2887 2883 2880 2878 2877 2877 2877 2878 2880 2882 2883 2885 2887 2889
3108 3104 3101 3097 3093 3089 3084 3079 3073 3068 3062 3054 3047 3039 3032 3024 3015 3005 2995 2985 2976 2967 2957 2948 2938 2928 2917 2908 2901 2895 2891 2887 2885 2884 2884 2884 2885 2885 2886 2887 2888 2889 2891
3107 3105 3101 3097 3093 3090 3085 3080 3075 3070 3065 3059 3052 3045 3038 3030 3022 3013 3004 2994 2984 2976 2967 2957 2948 2938 2927 2918 2911 2905 2900 2895 2893 2891 2891 2890 2890 2891 2891 2891 2892 2893 2894
3107 3104 3101 3097 3094 3090 3085 3081 3076 3071 3066 3060 3055 3048 3041 3034 3027 3019 3011 3003 2994 2985 2977 2968 2958 2949 2940 2930 2921 2914 2909 2902 2900 2898 2896 2896 2895 2895 2895 2895 2895 2896 2897
3106 3103 3100 3097 3093 3090 3086 3082 3077 3073 3068 3062 3057 3051 3044 3038 3031 3024 3017 3010 3002 2994 2985 2977 2967 2958 2950 2942 2934 2925 2919 2913 2908 2904 2902 2900 2899 2899 2898 2899 2899 2899 2900
3105 3102 3099 3096 3093 3090 3086 3082 3078 3074 3069 3064 3059 3054 3049 3042 3036 3030 3023 3017 3010 3002 2994 2986 2978 2970 2961 2953 2946 2937 2930 2925 2918 2913 2908 2906 2905 2904 2903 2902 2902 2903 2903
3103 3100 3098 3095 3092 3088 3085 3082 3078 3074 3070 3066 3061 3056 3052 3046 3040 3034 3028 3022 3015 3009 3002 2994 2986 2980 2973 2964 2956 2949 2941 2935 2928 2922 2917 2913 2910 2909 2908 2907 2907 2907 2907